Location: Poughquag
(41.6090°N, 73.6820°W)
Time: 07:01:23
(UTC-05:00)

ISS - Visible Passes

Search period start: 23 January 2021 00:00
Search period end: 02 February 2021 00:00
Orbit: 418 x 421 km, 51.6° (Epoch: 23 January)

Date Brightness Start Highest point End Pass type
(mag) Time Alt. Az. Time Alt. Az. Time Alt. Az.
23 Jan -2.2 18:08:43 10° W 18:11:42 28° NNW 18:13:42 16° NNE visible
24 Jan -1.3 18:59:32 10° NW 19:01:17 16° NNW 19:01:17 16° NNW visible
25 Jan -1.6 18:11:42 10° WNW 18:14:08 18° NNW 18:15:52 13° NNE visible
26 Jan -1.2 19:02:14 10° NW 19:03:24 14° NNW 19:03:24 14° NNW visible
27 Jan -1.5 18:14:35 10° NW 18:16:38 15° N 18:17:57 13° NNE visible
28 Jan -1.3 19:04:22 10° NNW 19:05:29 15° NNW 19:05:29 15° NNW visible
29 Jan -1.7 18:16:57 10° NNW 18:19:08 16° N 18:20:04 15° NNE visible
30 Jan -1.7 19:06:09 10° NW 19:07:39 20° NNW 19:07:39 20° NNW visible
31 Jan -2.2 18:18:49 10° NW 18:21:31 22° NNE 18:22:20 20° NE visible
31 Jan -0.3 19:55:17 10° NW 19:55:18 10° NW 19:55:18 10° NW visible
01 Feb -2.5 19:07:52 10° NW 19:10:04 35° NNW 19:10:04 35° NNW visible
